Scottsboro, AL

2:02 AM CDT on September 22, 2017 (GMT -0500)
Scottsboro

Weather History for K4A6 - February, 2013

Change the Weather History Date:

Sunday, February 10, 2013

  Actual Average (KHSV) Record (KHSV)
Temperature  
Mean Temperature 52 °F -  
Max Temperature 53 °F 51 °F 76 °F (1938)
Min Temperature 50 °F 29 °F 9 °F (1971)
Degree Days  
Heating Degree Days 14    
Growing Degree Days 2 (Base 50)    
Moisture  
Dew Point 32 °F    
Average Humidity 48    
Maximum Humidity 88    
Minimum Humidity 38    
Precipitation  
Precipitation 0.03 in - - ()
Sea Level Pressure  
Sea Level Pressure 30.17 in    
Wind  
Wind Speed 6 mph (South)    
Max Wind Speed 14 mph    
Max Gust Speed 23 mph    
Visibility 5 miles    
Events Rain    
Averages and records for this station are not official NWS values.
T = Trace of Precipitation, MM = Missing Value Source: NWS Daily Summary

Daily Weather History Graph

Daily Weather History Graph

Search for Another Location

Airport or City:

Trip Planner

Search our weather history database for the weather conditions in past years. The results will help you decide how hot, cold, wet, or windy it might be!

Date:

Astronomy

Feb. 10, 2013 Rise Set
Actual Time 6:34 AM CST 5:22 PM CST
Civil Twilight 6:08 AM CST 5:48 PM CST
Nautical Twilight 5:38 AM CST 6:18 PM CST
Astronomical Twilight 5:09 AM CST 6:47 PM CST
Moon 6:26 AM CST (2/10) 6:08 PM CST (2/10)
Length of Visible Light 11h 40m
Length of Day
10h 48m
New Moon, 0% of the Moon is Illuminated
Feb 10
New Moon
Feb 17
First Quarter
Feb 25
Full
Mar 4
Last Quarter
Mar 11
New

Hourly Weather History & Observations

Time (CST) Temp. Dew Point Humidity Pressure Visibility Wind Dir Wind Speed Gust Speed Precip Events Conditions
12:15 AM 53.6 °F 30.2 °F 41% 30.20 in 5.0 mi South 4.6 mph - N/A   Haze
12:35 AM 53.6 °F 30.2 °F 41% 30.20 in 5.0 mi SE 3.5 mph - N/A   Haze
12:55 AM 53.6 °F 32.0 °F 44% 30.20 in 5.0 mi Calm Calm - N/A   Haze
1:15 AM 51.8 °F 32.0 °F 47% 30.21 in 5.0 mi SSW 4.6 mph - N/A   Haze
1:35 AM 53.6 °F 32.0 °F 44% 30.21 in 6.0 mi SSE 8.1 mph - N/A   Haze
1:55 AM 53.6 °F 32.0 °F 44% 30.21 in 6.0 mi SSE 5.8 mph - N/A   Haze
2:15 AM 53.6 °F 32.0 °F 44% 30.20 in 5.0 mi South 4.6 mph - N/A   Haze
2:35 AM 53.6 °F 32.0 °F 44% 30.20 in 5.0 mi South 5.8 mph - N/A   Haze
2:55 AM 53.6 °F 32.0 °F 44% 30.20 in 5.0 mi SSW 4.6 mph - N/A   Haze
3:15 AM 53.6 °F 32.0 °F 44% 30.20 in 6.0 mi South 5.8 mph - N/A   Haze
3:35 AM 53.6 °F 32.0 °F 44% 30.20 in 5.0 mi SSE 4.6 mph - N/A   Haze
3:55 AM 53.6 °F 32.0 °F 44% 30.20 in 5.0 mi South 5.8 mph - N/A   Haze
4:15 AM 51.8 °F 32.0 °F 47% 30.20 in 6.0 mi South 4.6 mph - N/A   Haze
4:35 AM 51.8 °F 32.0 °F 47% 30.18 in 5.0 mi SE 8.1 mph - N/A   Haze
4:55 AM 51.8 °F 32.0 °F 47% 30.18 in 5.0 mi SSE 12.7 mph 20.7 mph N/A   Haze
5:15 AM 51.8 °F 32.0 °F 47% 30.16 in 5.0 mi SSE 9.2 mph 20.7 mph N/A   Haze
5:35 AM 51.8 °F 30.2 °F 44% 30.18 in 6.0 mi South 10.4 mph - N/A   Haze
5:55 AM 51.8 °F 30.2 °F 44% 30.17 in 5.0 mi South 4.6 mph - N/A   Haze
6:15 AM 50.0 °F 28.4 °F 43% 30.17 in 5.0 mi South 5.8 mph - N/A   Haze
6:35 AM 50.0 °F 28.4 °F 43% 30.18 in 5.0 mi South 4.6 mph - N/A   Haze
6:55 AM 50.0 °F 28.4 °F 43% 30.20 in 5.0 mi South 5.8 mph - N/A   Haze
7:15 AM 51.8 °F 26.6 °F 38% 30.21 in 4.0 mi SSE 11.5 mph 18.4 mph N/A   Haze
7:35 AM 50.0 °F 28.4 °F 43% 30.21 in 4.0 mi South 6.9 mph 21.9 mph N/A   Haze
7:55 AM 50.0 °F 28.4 °F 43% 30.18 in 4.0 mi SSE 8.1 mph 20.7 mph N/A   Haze
8:15 AM 51.8 °F 28.4 °F 41% 30.20 in 4.0 mi South 10.4 mph 17.3 mph N/A   Haze
8:35 AM 51.8 °F 30.2 °F 44% 30.18 in 3.0 mi SSE 6.9 mph - N/A   Haze
8:55 AM 53.6 °F 30.2 °F 41% 30.18 in 4.0 mi SSE 8.1 mph - N/A   Haze
9:15 AM 53.6 °F 30.2 °F 41% 30.17 in 4.0 mi South 8.1 mph 23.0 mph N/A   Haze
3:35 PM - - N/A% 30.02 in - SSE 13.8 mph 20.7 mph 0.01 in Rain Light Rain
3:55 PM 53.6 °F 50.0 °F 88% 30.04 in 1.8 mi SSW 5.8 mph 18.4 mph 0.03 in Rain Light Rain
4:15 PM 53.6 °F 50.0 °F 88% 30.06 in 1.8 mi South 4.6 mph - N/A Rain Light Rain
4:35 PM 53.6 °F 50.0 °F 88% 30.04 in 2.0 mi South 6.9 mph 16.1 mph N/A Rain Light Rain